Orbital Elements at Epoch 2459200.5 (2020-Dec-17.0) TDB
Reference: JPL 18 (heliocentric ecliptic J2000)
Element | Value | Uncertainty (1-sigma) | Units |
e | .2187564887543957 | 3.1915e-08 | |
a | 2.720946400372164 | 1.4733e-08 | au |
q | 2.125721719737838 | 8.809e-08 | au |
i | 8.171136013888422 | 5.5964e-06 | deg |
node | 316.7186632754821 | 2.6234e-05 | deg |
peri | 78.48124874764886 | 3.0744e-05 | deg |
M | 55.27819885784902 | 1.3983e-05 | deg |
tp | 2458948.773005774638 (2020-Apr-09.27300577) | 6.2999e-05 | TDB |
period | 1639.375373900461 4.49 | 1.3315e-05 3.645e-08 | d yr |
n | .2195958324928811 | 1.7836e-09 | deg/d |
Q | 3.316171081006491 | 1.7956e-08 | au |
|
| | Orbit Determination Parameters
Additional Information
|